Orbital Elements at Epoch 2457223.5 (2015-Jul-20.0) TDB
Reference: JPL 21 (heliocentric ecliptic J2000)
Element | Value | Uncertainty (1-sigma) | Units |
e | .2417115888254901 | 2.5664e-07 | |
a | 3.154122660790256 | 8.3578e-08 | au |
q | 2.391734661100161 | 8.2316e-07 | au |
i | 10.96668688636588 | 1.7978e-05 | deg |
node | 106.4954998417413 | 0.00016083 | deg |
peri | 253.5001606429878 | 0.00019142 | deg |
M | 57.27837313014015 | 7.0201e-05 | deg |
tp | 2456897.959918185803 (2014-Aug-28.45991819) | 0.00039754 | TDB |
period | 2046.050246344072 5.60 | 8.1325e-05 2.227e-07 | d yr |
n | .1759487581711427 | 6.9935e-09 | deg/d |
Q | 3.916510660480352 | 1.0378e-07 | au |
|
| | Orbit Determination Parameters
Additional Information
|